Regional Weather Roundup
Issued by NWS Upton, NY

Current Version | Previous Version | Text Only | Print | Product List | Glossary On
Versions: 1 2 3 4 5 6 7 8 9 10 11 12 13 14 15 16 17 18 19 20 21 22 23 24 25 26 27 28 29 30 31 32 33 34 35 36 37 38 39 40 41 42 43 44 45 46 47 48 49 50
000 ASUS41 KOKX 260808 RWROKX REGIONAL WEATHER ROUNDUP NATIONAL WEATHER SERVICE NEW YORK NY 400 AM EDT SUN MAR 26 2017 NOTE: "FAIR" INDICATES FEW OR NO CLOUDS BELOW 12,000 FEET WITH NO SIGNIFICANT WEATHER AND/OR OBSTRUCTIONS TO VISIBILITY. NYZ071-072-176-178-NJZ106-104-260900- NEW YORK CITY METRO AREA CITY SKY/WX TMP DP RH WIND PRES REMARKS Central Park LGT RAIN 38 36 92 E12 30.43F FOG WCI 30 Wall St Helipt CLOUDY 40 37 89 NE12 30.42S WCI 33 LaGuardia APRT LGT RAIN 41 35 79 NE13 30.41F Kennedy INTL LGT RAIN 41 38 89 NE9 30.42F Breezy Point N/A 39 N/A N/A NE10 N/A WCI 32 Newark/Liberty LGT RAIN 40 36 86 NE12 30.41S WCI 33 Teterboro CLOUDY 41 32 70 NE14G23 30.41S $$ NYZ177-179-078>081-260900- LONG ISLAND NEW YORK CITY SKY/WX TMP DP RH WIND PRES REMARKS Jones Beach N/A 39 N/A N/A E13 N/A WCI 32 Matinecock PT N/A 37 N/A N/A E16 N/A WCI 28 Farmingdale CLOUDY 39 36 89 NE7 30.42S WCI 34 MacArthur/ISP CLOUDY 40 36 86 NE7 30.42R Shirley CLOUDY 39 35 86 VRB3 30.43S Westhampton CLOUDY 39 33 79 NE8 30.44R WCI 33 East Hampton MOCLDY 37 30 77 NE8 30.42S WCI 30 Montauk N/A 37 32 82 NE7 30.43F WCI 32 $$ NYZ052-065-067-260900- HUDSON VALLEY CITY SKY/WX TMP DP RH WIND PRES REMARKS White Plains CLOUDY 38 32 79 E9 30.40S WCI 31 Newburgh CLOUDY 36 34 93 NE6 30.43S WCI 31 Montgomery CLOUDY 36 27 69 NE10 30.41S WCI 28 Poughkeepsie CLOUDY 34 30 85 N3 30.43R Albany CLOUDY 28 14 55 N7 30.46S WCI 21 $$ NJZ001-105-106-008-010-013-015-019>022-104-260900- NEW JERSEY CITY SKY/WX TMP DP RH WIND PRES REMARKS Newark/Liberty LGT RAIN 40 36 86 NE12 30.41S WCI 33 Teterboro CLOUDY 41 32 70 NE14G23 30.41S Caldwell RAIN 39 36 89 E8 30.41F WCI 33 Somerville CLOUDY 41 34 76 E9 30.38S Linden CLOUDY 40 35 81 E12 30.41F WCI 33 Sussex LGT RAIN 36 33 89 NE7 30.40S WCI 30 Andover N/A 35 34 96 N3 30.39S Trenton CLOUDY 42 38 85 E15 30.36S Millville CLOUDY 45 40 82 NE9 30.32R Atlantic City CLOUDY 44 38 79 NE20G25 30.34R Wrightstown CLOUDY 42 38 87 NE15 30.33S Toms River CLOUDY 42 38 85 NE8 30.37R Belmar CLOUDY 41 37 86 NE18G25 30.37F $$ PAZ047>061-062-071-260900- EASTERN PENNSYLVANIA CITY SKY/WX TMP DP RH WIND PRES REMARKS Philadelphia CLOUDY 44 38 79 NE10 30.36R Allentown CLOUDY 40 34 79 NE13 30.36F WCI 32 Scranton CLOUDY 39 33 79 E5 30.34R $$ CTZ002-004>006-009-010-012-RIZ004-006-007-MAZ004-011-015-260900- SOUTHERN NEW ENGLAND IN CT CITY SKY/WX TMP DP RH WIND PRES REMARKS Bradley INTL CLOUDY 30 28 92 N8 30.45S WCI 22 Hartford PTCLDY 30 29 96 N3 30.45S FOG Danbury CLOUDY 36 31 82 E9 30.43R WCI 29 Wtrbury/Oxford CLOUDY 34 25 69 E3 30.42R Bridgeport CLOUDY 39 32 76 NE8 30.45R WCI 33 Meriden CLOUDY 36 31 82 N3 30.44S New Haven CLOUDY 36 31 82 N6 30.44R WCI 31 Chester NOT AVBL Groton PTCLDY 33 30 88 N5 30.43S WCI 29 Wilimantic CLOUDY 29 27 92 NE3 30.45R IN RI CITY SKY/WX TMP DP RH WIND PRES REMARKS Providence CLOUDY 32 27 81 N8 30.45S WCI 25 Block Island CLOUDY 36 33 89 NE9 30.43S WCI 29 Westerly MOCLDY 33 30 88 NE5 30.44R WCI 29 IN MA CITY SKY/WX TMP DP RH WIND PRES REMARKS Boston CLOUDY 31 25 78 N9 30.47R WCI 23 Worcester CLOUDY 29 22 75 NE7 30.42R WCI 22 Westfield CLOUDY 30 29 96 N8 30.44S WCI 22 Provincetown CLEAR 37 29 72 NE13 30.44S WCI 29 Nantucket CLEAR 32 30 92 N6 30.42S WCI 26 $$ ANZ330-335-338-340-345-350-353-355-260900- COASTAL MARINE OBSERVATIONS STATION/POSITION TIME SKY/WX TEMP WIND PRES VSBY WAVE AIR SEA DIR/SP/G HT/PER (UTC) (F) (DEG/KT/KT) (MB) (MI) (FT/S) NY HARB ENTRANCE 0750 41 42 70/ 17/ 19 1029.3 3/ 7 20 S FIRE ISLAND 0750 40 40 50/ 16/ 17 1028.7 4/ 5 GREAT SOUTH BAY NOT AVBL 23 SSW MONTAUK P 0650 40 43 1030.2 3/ 8 15 E BARNEGAT LI 0730 42 N/A 5/ 5 HUDSON CANYON 0650 43 45 60/ 21/ 23 1027.5 5/ 5 KINGS POINT 0748 39 39 1030.0 EXECUTION ROCKS NOT AVBL CENTRAL LI SOUND 0730 37 20/ 10/ 12 N/A 1 EASTERN LI SOUND NOT AVBL ROBBINS REEF 0748 39 50/ 13/ 15 1029.7 $$ >>>>>>>>>>>>>>>>>>>>>>>>>>>> KEY <<<<<<<<<<<<<<<<<<<<<<<<<<< > < > SKY/WX - Sky Condition/Present Weather < > TMP - Temperature in Fahrenheit < > DP - Dew Point in Fahrenheit < > RH - Relative Humidity in Percent < > WIND - Direction (from) and Speed in MPH < > PRES - Mean Sea Level Pressure (inches of Hg) < > WCI - Wind Chill Index < > VSB - VISIBILITY IN MILES < > HX - HEAT INDEX < > TC - TEMPERATURE IN CELSIUS < > VRB - VARIABLE WIND DIRECTION < > < >>>>>>>>>>>>>>>>>>>>>>>>>>>> KEY <<<<<<<<<<<<<<<<<<<<<<<<<<<

USA.gov is the U.S. government's official web portal to all federal, state and local government web resources and services.